Date,TemperatureHighF,TemperatureAvgF,TemperatureLowF,DewpointHighF,DewpointAvgF,DewpointLowF,HumidityHigh,HumidityAvg,HumidityLow,PressureMaxIn,PressureMinIn,WindSpeedMaxMPH,WindSpeedAvgMPH,GustSpeedMaxMPH,PrecipitationSumIn
2013-3-1,84,53,26,43,24,18,77,40,13,30.07,29.91,12,2,12,0.00
2013-3-2,74,50,31,35,26,21,70,44,19,30.20,30.04,13,2,13,0.00
2013-3-3,80,57,29,41,30,20,73,41,18,30.04,29.70,16,4,16,0.00
2013-3-4,93,70,54,52,44,37,75,44,18,29.70,29.49,15,6,15,0.00
2013-3-5,75,56,31,50,25,10,60,36,13,30.15,29.55,15,4,15,0.00
2013-3-6,72,47,26,26,18,11,62,36,12,30.23,29.99,9,2,9,0.00
2013-3-7,74,54,31,52,38,19,72,56,37,30.02,29.88,15,4,15,0.00
2013-3-8,63,59,56,61,55,50,93,86,71,29.95,29.80,12,4,12,0.05
2013-3-9,71,65,60,64,61,57,93,87,77,29.80,29.44,17,6,17,0.34
2013-3-10,78,58,36,60,43,28,92,62,29,29.92,29.54,9,2,9,0.66
2013-3-11,77,52,30,40,29,23,85,51,17,29.96,29.79,8,1,8,0.00
2013-3-12,84,58,30,42,33,24,83,46,18,30.08,29.84,13,2,13,0.00
2013-3-13,81,59,36,46,35,28,73,44,22,30.23,30.08,12,2,12,0.00
2013-3-14,82,63,44,53,43,36,80,51,29,30.17,30.01,13,3,13,0.00
2013-3-15,85,68,52,56,47,39,87,52,24,30.02,29.79,15,5,15,0.00
2013-3-16,87,71,56,59,54,47,84,58,32,29.79,29.55,17,6,17,0.00
2013-3-17,90,72,64,63,58,53,80,63,39,29.62,29.47,14,4,14,0.00
2013-3-20,66,53,46,40,38,35,77,60,33,29.89,29.82,6,1,7,0.00
2013-3-21,77,63,46,59,51,39,82,66,49,29.82,29.41,18,4,18,0.00
2013-3-22,96,71,52,69,58,44,86,65,35,29.60,29.43,12,4,12,0.00
2013-3-23,82,61,49,61,51,43,87,72,40,29.61,29.40,8,2,8,0.00
2013-3-24,70,52,32,53,31,22,88,49,24,29.97,29.52,12,3,12,0.00
2013-3-25,66,45,28,30,21,16,72,43,18,30.18,29.96,11,2,11,0.00
2013-3-26,76,49,24,40,22,18,78,42,16,30.25,30.06,9,2,9,0.00
2013-3-27,73,55,29,45,36,20,75,51,31,30.09,29.93,16,4,16,0.00
2013-3-28,74,62,53,58,53,45,83,72,56,29.99,29.90,13,4,13,0.00
2013-3-29,82,68,57,60,56,54,90,67,42,29.98,29.85,14,4,14,0.00
2013-3-30,83,70,63,63,59,55,83,68,45,29.89,29.69,17,4,17,0.00
2013-3-31,76,68,60,66,61,55,87,79,67,29.79,29.68,8,2,8,0.02